Location: Brede
(50.9167°N, 0.6000°E)
Time: 17:19:22
(UTC+00:00)

Meteor 2-9 Rocket - Pass Details

Date: 08 August 2020
Orbit: 792 x 895 km, 81.3° (Epoch: 23 September)

Event Time Altitude Azimuth Distance (km) Brightness Sun altitude
Exits shadow 00:27:26 53° 176° (S) 1,035 4.2 -22.8°
Maximum altitude 00:28:49 80° 99° (E) 867 4.1 -22.8°
Drops below altitude 10° 00:34:32 10° 14° (NNE) 2,518 7.8 -22.7°
Sets 00:37:01 0° 14° (NNE) 3,474 8.9 -22.6°
